FENGYUN 1C DEB, 32222

Orbit data source: Space-Track

FENGYUN 1C DEB, 32222 is space debris in SSO originally from a launch on Mon, 10 May 1999 UTC launched from the Taiyaun Space Center, China (TSC). Fengyun 1C debris stems from the Chinese weather satellite Fengyun-1C, which was intentionally destroyed by a Chinese anti-satellite missile in 2007. This event dramatically increased the amount of space debris, with thousands of trackable fragments posing hazards to satellites and human spaceflight. The Fengyun 1C debris cloud has become a focal point in discussions about space sustainability and the need for international regulations to prevent the creation of new debris.

Loading next visibility...
Identifier
32222, 1999-025CVU
Orbit
SSO
Country
Flag of CNCN / PRC
Related business
Manufacturer
Unknown
Mission
Spacecraft
Bus & Motor
Unknown
Mass
Unknown
Launch date (UTC)
1999-05-10 (27 years ago)
Launch vehicle
Unknown
Launch site
Taiyaun Space Center, China (TSC)
Object type
Payload
Rocket body
Debris
Shape & HBR
Unknown shape, 1.1 m
Radar Cross Section
Medium (>0.1 m² and <1 m²)

Expand to show TLE details & history
Last TLE update: 3 weeks ago

TLE from 3 weeks ago
0 FENGYUN 1C DEB
1 32222U 99025CVU 26235.19078321  .00018872  00000-0  25153-2 0  9999
2 32222  99.0944 218.3892 0037594 155.5747 204.7253 14.79192652682840
Epoch: 2026-08-23T04:34Z
TLE epoch observation values (Epoch: 2026-08-23T04:34:43.669Z)
Latitude
0.00003°
Longitude
178.21685°
Altitude
658.816 km
Speed
7.515 km/s
True Right ascension
14h 33m 33s
True Declination
0° 00' 00"
Sunlit
Object was in daylight at epoch
Visualization orbit readout
Latitude
Unknown
Longitude
Unknown
Altitude
Unknown
Speed
Unknown
Apparent Right ascension
Unknown
Apparent Declination
Unknown
Sunlit
N/A
Visualization observer readout
Local Sidereal Time
06:48:33
Azimuth
Unknown
Elevation
Unknown
Doppler factor
Unknown
Orbital elements
Apogee altitude
655.315 km
Perigee altitude
602.63 km
Semi-major axis
7,007.11 km
Eccentricity
0.00376
Inclination
99.0944°
RAAN
218.3892°
Arg. of periapsis
155.5747°
True anomaly
204.54588°
Mean anomaly
204.7253°
Eccentric anomaly
204.63551°
Mean motion
3.70028 °/min
Orbital period
97.29 mins
BSTAR
0.0025153
Loading maneuver chart data...
Computing Atmospheric mass density...
Loading historical data...
Loading historical data...
Loading historical data...
Loading historical data...
Loading historical data...
Loading historical data...
Loading historical data...

Documentation

Showing up to 5 results
|